CZ-6A DEB, 54475

Orbit data source: Space-Track

CZ-6A DEB, 54475 is space debris in SSO originally from a launch on Fri, 11 Nov 2022 UTC launched from the Taiyaun Space Center, China (TSC). Debris objects in space refer to the collection of defunct objects orbiting the Earth. Examples of debris include non-operational satellites, rocket bodies, and fragments generated from explosions, collisions, or faulty payload assembly.

Loading next visibility...
Identifier
54475, 2022-151HB
Orbit
SSO
Country
Flag of CNCN / PRC
Related business
Manufacturer
SAST
Mission
Spacecraft
Bus & Motor
Unknown
Mass
Unknown
Launch date (UTC)
2022-11-11 (4 years ago)
Launch vehicle
Unknown
Launch site
Taiyaun Space Center, China (TSC)
Object type
Payload
Rocket body
Debris
Shape & HBR
Unknown shape, 0.1 m
Radar Cross Section
Medium (>0.1 m² and <1 m²)

Expand to show TLE details & history
Last TLE update: 2 days ago

TLE from 2 days ago
0 CZ-6A DEB
1 54475U 22151HB  26171.45097017  .00002541  00000-0  44657-3 0  9997
2 54475  98.5976 246.1671 0132913 233.0946 125.8016 14.63017905191150
Epoch: 2026-06-20T10:49Z
TLE epoch observation values (Epoch: 2026-06-20T10:49:23.822Z)
Latitude
-0.00006°
Longitude
175.15244°
Altitude
742.15 km
Speed
7.454 km/s
True Right ascension
16h 24m 40s
True Declination
0° 00' 00"
Sunlit
Object was in full shadow at epoch
Visualization orbit readout
Latitude
Unknown
Longitude
Unknown
Altitude
Unknown
Speed
Unknown
Apparent Right ascension
Unknown
Apparent Declination
Unknown
Sunlit
N/A
Visualization observer readout
Local Sidereal Time
21:32:25
Azimuth
Unknown
Elevation
Unknown
Doppler factor
Unknown
Orbital elements
Apogee altitude
774.36 km
Perigee altitude
586.722 km
Semi-major axis
7,058.678 km
Eccentricity
0.01329
Inclination
98.5976°
RAAN
246.1671°
Arg. of periapsis
233.0946°
True anomaly
127.0249°
Mean anomaly
125.8016°
Eccentric anomaly
126.41444°
Mean motion
3.65981 °/min
Orbital period
98.37 mins
BSTAR
0.00044657
Loading maneuver chart data...
Computing Atmospheric mass density...
Loading historical data...
Loading historical data...
Loading historical data...
Loading historical data...
Loading historical data...
Loading historical data...
Loading historical data...

Documentation

Showing up to 5 results
|